Flag for U.S.A. Weather past 2 weeks in Madison, Wisconsin, U.S.A.

30 °F


Feels Like: 18 °F
Forecast: 27 / 36 °F
Wind: 17 mph from Northeast

Location: Dane County Regional-Truax Field

Current Time: Nov 27, 2015 at 12:31:14 PM

Latest Report: Nov 27, 2015 at 11:53 AM

Visibility: 10 mi

Pressure: 30.47 "Hg

Humidity: 85%

Dew point: 26 °F

Location of MadisonLocation

Historic Weather in Madison — Graph


Madison temperature yesterday

Maximum temperature yesterday: 54 °F (at 2:53 PM)
Minimum temperature yesterday: 36 °F (at 11:53 PM)
Average temperature yesterday: 47 °F

Past Weeks' High & Low Weather Summary

High61 °F (Nov 15, 1:53 PM)100% (Nov 26, 4:53 PM)30.50 "Hg (Nov 26, 4:53 PM)
Low10 °F (Nov 22, 4:53 AM)33% (Nov 20, 12:53 PM)29.32 "Hg (Nov 18, 11:53 AM)
Average40 °F73%30.03 "Hg
* Reported Nov 12 10:53 AM — Nov 27 10:53 AM, Madison, Weather by CustomWeather, © 2015

Note: Actual official high and low records may vary slightly from our data, if they occured in-between our weather recording intervals... More about our weather records


Madison weather history for previous 24 hours

Time TempWeatherWind HumidityBarometerVisibility
10:53 AM
Fri, Nov 27
30 °FOvercast.15 mph85%30.50 "Hg10 mi
9:53 AM31 °FOvercast.15 mph82%30.48 "Hg10 mi
8:53 AM32 °FOvercast.10 mph85%30.46 "Hg10 mi
7:53 AM32 °FMostly cloudy.16 mph82%30.42 "Hg10 mi
6:53 AM32 °FOvercast.15 mph88%30.40 "Hg10 mi
6:03 AM32 °FLight freezing rain. Mostly cloudy.14 mph92%30.37 "Hg10 mi
4:53 AM32 °FLight freezing rain. Ice fog.16 mph92%30.36 "Hg6 mi
4:00 AM32 °FLight rain. Ice fog.14 mph96%30.31 "Hg3 mi
3:53 AM33 °FLight rain. Fog.14 mph92%30.33 "Hg3 mi
2:53 AM34 °FLight rain. Overcast.20 mph88%30.28 "Hg10 mi
1:53 AM34 °FLight rain. Overcast.17 mph92%30.26 "Hg10 mi
12:53 AM35 °FRain. Fog.14 mph96%30.26 "Hg5 mi
11:53 PM
Thu, Nov 26
36 °FRain. Fog.17 mph92%30.26 "Hg6 mi
10:53 PM38 °FRain. Fog.15 mph93%30.22 "Hg6 mi
9:53 PM41 °FRain. Fog.12 mph93%30.18 "Hg5 mi
8:53 PM41 °FRain. Fog.6 mph93%30.16 "Hg5 mi
7:53 PM43 °FLight rain. Mostly cloudy.9 mph93%30.16 "Hg7 mi
6:53 PM47 °FLight rain. Low clouds.10 mph97%30.13 "Hg8 mi
5:53 PM54 °FRain. Fog.5 mph97%30.09 "Hg3 mi
4:53 PM53 °FLight rain. Fog.6 mph100%30.05 "Hg5 mi
3:53 PM53 °FRain. Fog.5 mph96%30.05 "Hg2 mi
2:53 PM54 °FLight rain. Fog.7 mph93%30.05 "Hg2 mi
1:53 PM53 °FRain. Fog.8 mph96%30.04 "Hg2 mi
12:53 PM53 °FLow clouds.8 mph93%30.06 "Hg10 mi
Weather by CustomWeather, © 2015

See weather overviewHow to use our weather pages